Home   Weather   Guilin   Past weeks

Flag for China Past Weather in Guilin, Guangxi, China — Yesterday and Last 2 Weeks

Now
77 °F

Rain. Fog.


Feels Like: 78 °F
Forecast: 73 / 79 °F
Wind: 1 mph from North

Location: Guilin Airport

Current Time: Sep 1, 2016 at 7:33:46 AM

Latest Report: Sep 1, 2016 at 7:00 AM


Visibility: 1 mi

Pressure: 29.59 "Hg

Humidity: 100%

Dew Point: 77 °F

Location of GuilinLocation

Past Weather in Guilin — Graph

°F

Guilin Temperature Yesterday

Maximum temperature yesterday: 91 °F (at 3:00 PM)
Minimum temperature yesterday: 70 °F (at 5:00 AM)
Average temperature yesterday: 81 °F

High & Low Weather Summary for the Past Weeks

 TemperatureHumidityPressure
High99 °F (Aug 24, 4:00 PM)100% (Aug 20, 12:00 AM)29.95 "Hg (Aug 20, 12:00 AM)
Low64 °F (Aug 29, 6:00 AM)33% (Aug 29, 4:00 PM)29.39 "Hg (Aug 17, 5:00 PM)
Average82 °F79%29.69 "Hg
* Reported Aug 17 6:00 AM — Sep 1 6:00 AM, Guilin, Weather by CustomWeather, © 2016

Note: Actual official high and low records may vary slightly from our data, if they occured in-between our weather recording intervals... More about our weather records

Advertising

Guilin Weather History for the Previous 24 Hours

Scroll right to see more
 ConditionsComfort  
Time TempWeatherWind HumidityBarometerVisibility
6:00 AM
Thu, Sep 1
77 °FLight rain. Fog.No wind100%29.59 "Hg1 mi
5:00 AM77 °FLight rain. Fog.1 mph100%29.59 "Hg1 mi
4:00 AM77 °FLight rain. Fog.1 mph100%29.59 "Hg1 mi
3:00 AM79 °FLight rain. Fog.3 mph94%29.59 "Hg2 mi
2:00 AM79 °FFog.1 mph94%29.62 "Hg3 mi
1:00 AM81 °FFog.1 mph89%29.62 "Hg3 mi
12:00 AM81 °FFog.1 mph89%29.65 "Hg3 mi
11:00 PM
Wed, Aug 31
81 °FClear.1 mph89%29.65 "Hg4 mi
10:00 PM82 °FOvercast.1 mph84%29.65 "Hg4 mi
9:00 PM82 °FOvercast.1 mph79%29.65 "Hg4 mi
8:00 PM84 °FPassing clouds.6 mph74%29.62 "Hg4 mi
7:00 PM86 °FPassing clouds.3 mph70%29.62 "Hg4 mi
6:00 PM88 °FPassing clouds.6 mph62%29.59 "Hg6 mi
5:00 PM90 °FScattered clouds.6 mph59%29.62 "Hg6 mi
4:00 PM91 °FPassing clouds.6 mph52%29.62 "Hg6 mi
3:00 PM91 °FScattered clouds.3 mph56%29.65 "Hg6 mi
2:00 PM90 °FPartly sunny.6 mph55%29.68 "Hg5 mi
1:00 PM90 °FPassing clouds.3 mph55%29.71 "Hg5 mi
12:00 PM88 °FClear.3 mph59%29.71 "Hg5 mi
11:00 AM86 °FClear.6 mph62%29.77 "Hg5 mi
10:00 AM82 °FClear.1 mph66%29.77 "Hg5 mi
9:00 AM77 °FClear.3 mph79%29.77 "Hg5 mi
8:00 AM73 °FClear.1 mph89%29.77 "Hg4 mi
7:00 AM72 °FClear.1 mph94%29.74 "Hg4 mi
Weather by CustomWeather, © 2016

See weather overviewHow to use our weather pages